Weather in Dachu-Borzoy

Russia / Chechen Republic     43°00′31″N   45°43′34″E
temp.,
°C
wind,
m/s
gust,
m/s
humid.,
%
clouds,
%
prec.,
mm/h
press.,
hPa
HPBL,
m
11 may, tue
tue1100:00+3s238271 0.0 102246
03:00+2s347919 0.0 102079
06:00+4s23661 0.0 1019110
09:00+10n32553 0.0 1017940
12:00+14n334720 0.0 10141342
15:00+15n324960 0.0 10131426
18:00+12n24706 0.0 1015367
21:00+6ssw22930 0.0 101722
12 may, wed
wed1200:00+6s22901 0.0 101621
03:00+6s21860 0.0 101618
06:00+8wnw01760 0.0 101668
09:00+13n21639 0.0 1016666
12:00+17n325520 0.0 10151069
15:00+18n325636 0.0 10151200
18:00+15nne22745 0.0 1015177
21:00+10s22920 0.0 101622
13 may, thu
thu1300:00+10s22811 0.0 101627
03:00+10s22671 0.0 101523
06:00+13sse12640 0.0 101440
09:00+19n21523 0.0 1014464
12:00+22n32500 0.0 1013768
15:00+23n32522 0.0 1013829
18:00+19n12772 0.0 1014118
21:00+14s22861 0.0 101525
14 may, fri
fri1400:00+14s3358100 0.0 101436
03:00+13s345322 0.0 101444
06:00+15s335526 0.0 101451
09:00+23nne22390 0.0 1013461
12:00+26n33441 0.0 1013769
15:00+26n32483 0.0 1012902
18:00+23nnw11725 0.0 101241
21:00+18s33704 0.0 101344
15 may, sat
sat1500:00+16s44580 0.0 101364
03:00+16s45574 0.0 101271
06:00+17s34620 0.0 101382
09:00+25n21393 0.0 1013664
12:00+27n33385 0.0 10141054
15:00+27n22460 0.0 10121240
18:00
21:00+15s4487100 5.3 101761